Location: Ellerstadt
(49.4644°N, 8.2615°E)
Time: 22:59:32
(UTC+00:00)

USA 281 - Pass Details

Date: 03 March 2021
Orbit: 1076 x 1083 km, 106.0° (Epoch: 12 April)

Event Time Altitude Azimuth Distance (km) Brightness Sun altitude
Exits shadow 21:34:27 38° 345° (NNW) 1,586 4.3 -39.7°
Drops below altitude 10° 21:38:18 10° 337° (NNW) 2,927 6.1 -40.1°
Sets 21:40:50 0° 335° (NNW) 3,888 7.0 -40.4°
